User: anonymous   Login
Location: Owatonna
(44.0840°N, 93.2260°W)
Time: 09:18:43
(UTC-05:00)
Language:

Cosmos 1500 Rocket - Orbit

View from above orbital plane
View from above orbital plane
View from above satellite
View from above satellite

Ground track
Ground track

The orbit data is extracted from the following two-line orbital elements,

1 14373U 83099B   16241.86006858  .00000100  00000-0  91261-5 0  9997
2 14373  82.5433 157.7333 0021717 109.7404 287.0015 14.83626979777534
Epoch (UTC): 28 August 2016 20:38:29
Eccentricity: 0.0021717
inclination: 82.5433°
perigee height: 603 km
apogee height: 633 km
right ascension of ascending node: 157.7333°
argument of perigee: 109.7404°
revolutions per day: 14.83626979
mean anomaly at epoch: 287.0015°
orbit number at epoch: 77753

The dashed part of the orbit path shows where the satellite is in the earth's shadow,  

DLR